SCP
0 0 0 0 0 0 0 0 0 0 0 0 0 0 0 0 0 0 0 0 0 0 0 0 0 0 0 0 0 0 0 0 0 0 0 0 0 0
0 0 0 0 0 0 0 0 0 0 0 0 0 0 0 0 0 0 0 0 0 0 0 0 0 0 0 0 0 0 0 0 0 0 0 0 0 0
0 0 0 0 0 0 0 0 0 0 0 0 0 0 0 0 0 0 0 0 0 0 0 0 0 0 0 0 0 0 0 0 0 0 0 0 0 0
0 0 0 0 0 0 0 0 0 0 0 0 0 0 0 0 0 0 0 0 0 0 0 0 0 0 0 0 0 0 0 0 0 0 0 0 0 0
0 0 0 0 0 0 0 0 0 0 0 0 0 0 0 0 0 0 0 0 0 0 0 0 0 0 0 0 0 0 0 0 0 0 0 0 0 0
0 0 0 0 0 0 0 0 0 0 0 0 0 0 0 0 0 0 0 0 0 0 0 0 0 0 0 0 0 0 0 0 0 0 0 0 0 0
0 0 0 0 0 0 0 0 0 0 0 0 0 0 0 0 0 0 0 0 0 0 0 0 0 0 0 0 0 0 0 0 0 0 0 0 0 0
0 0 0 0 0 0 0 0 0 0 0 0 0 0 0 0 0 0 0 0 0 0 0 0 0 0 0 0 0 0 0 0 0 0 0 0 0 0
0 0 0 0 0 0 0 0 0 0 0 0 0 0 0 0 0 0 0 0 0 0 0 0 0 0 0 0 0 0 0 0 0 0 0 0 0 0
0 0 0 0 0 0 0 0 0 0 0 0 0 0 0 0 0 0 0 0 0 0 0 0 0 0 0 0 0 0 0 0 0 0 0 0 0 0
0 0 0 0 0 0 0 0 0 0 0 0 0 0 0 0 0 0 0 0 0 0 0 0 0 0 0 0 0 0 0 0 0 0 0 0 0 0
0 0 0 0 0 0 0 0 0 0 0 0 0 0 0 0 0 0 0 0 0 0 0 0 0 0 0 0 0 0 0 0 0 0 0 0 0 0
0 0 0 0 0 0 0 0 0 0 0 0 0 0 0 0 0 0 0 0 0 0 0 0 0 0 0 0 0 0 0 0 0 0 0 0 0 0
0 0 0 0 0 0 0 0 0 0 0 0 0 0 0 0 0 0 0 0 0 0 0 0 0 0 0 0 0 0 0 0 0 0 0 0 0 0
0 0 0 0 0 0 0 0 0 0 0 0 0 0 0 0 0 0 0 0 0 0 0 0 0 0 0 0 0 0 0 0 0 0 0 0 0 0
0 0 0 0 0 0 0 0 0 0 0 0 0 0 0 0 0 0 0 0 0 0 0 0 0 0 0 0 0 0 0 0 0 0 0 0 0 0
0 0 0 0 0 0 0 0 0 0 0 0 0 0 0 0 0 0 0 0 0 0 0 0 0 0 0 0 0 0 0 0 0 0 0 0 0 0
0 0 0 0 0 0 0 0 0 0 0 0 0 0 0 0 0 0 0 0 0 0 0 0 0 0 0 0 0 0 0 0 0 0 0 0 0 0
0 0 0 0 0 0 0 0 0 0 0 0 0 0 0 0 0 0 0 0 0 0 0 0 0 0 0 0 0 0 0 0 0 0 0 0 0 0
0 0 0 0 0 0 0 0 0 0 0 0 0 0 0 0 0 0 0 0 0 0 0 0 0 0 0 0 0 0 0 0 0 0 0 0 0 0
0 0 0 0 0 0 0 0 0 0 0 0 0 0 0 0 0 0 0 0 0 0 0 0 0 0 0 0 0 0 0 0 0 0 0 0 0 0
0 0 0 0 0 0 0 0 0 0 0 0 0 0 0 0 0 0 0 0 0 0 0 0 0 0 0 0 0 0 0 0 0 0 0 0 0 0
0 0 0 0 0 0 0 0 0 0 0 0 0 0 0 0 0 0 0 0 0 0 0 0 0 0 0 0 0 0 0 0 0 0 0 0 0 0
Wind_Speed
7 7 6 6 5 5 5 6 6 7 7 6 4 5 4 4 5 6 7 7 9 9 9 8 7 7 7 7 7 7 7 6 7 7 7 7 7 8
6 7 7 6 6 6 6 6 7 7 8 5 5 5 6 5 6 7 7 8 9 9 9 8 8 8 7 7 7 7 7 7 7 8 8 8 7 7
7 8 8 7 6 6 6 7 7 7 8 7 5 6 7 7 6 6 6 6 6 9 9 9 8 8 8 7 7 7 8 8 8 8 9 8 8 7
8 8 9 7 8 7 7 8 8 7 7 8 6 5 7 7 7 6 5 5 5 7 8 8 8 8 8 8 8 8 8 8 8 8 9 9 9 8
8 8 8 8 8 7 8 8 7 7 7 7 7 5 5 5 5 5 6 5 4 5 7 8 9 8 8 9 8 9 8 8 8 8 7 8 9 9
8 8 8 9 9 9 8 8 8 8 7 6 6 5 5 5 5 4 4 4 4 4 5 5 6 8 9 9 9 9 9 9 9 8 8 7 8 8
8 8 8 10 11 9 7 7 7 7 6 6 6 5 5 5 5 4 5 3 4 4 3 4 4 5 6 8 9 9 9 9 9 9 8 8 8 8
8 8 8 9 10 12 12 11 9 8 7 7 6 7 8 7 5 5 4 4 4 3 3 4 4 5 4 5 7 8 9 8 8 8 8 8 8 8
8 7 6 7 9 8 10 11 11 11 10 9 9 9 8 7 7 7 7 6 5 4 4 5 4 5 4 4 7 9 9 8 8 8 8 8 8 8
8 8 8 8 7 8 8 8 8 8 9 8 8 8 7 6 7 7 7 5 3 3 5 5 4 4 3 4 7 9 9 9 8 8 8 8 8 8
7 8 8 8 10 10 8 8 8 7 8 9 9 8 9 8 7 4 4 4 4 3 3 3 3 2 3 4 4 7 8 8 8 8 8 8 7 7
6 7 8 9 10 10 7 6 7 7 6 6 5 6 6 6 8 7 5 5 3 3 3 3 3 2 2 2 3 3 5 7 8 8 8 8 7 5
6 5 5 9 10 10 8 6 7 7 6 5 4 4 3 3 3 4 4 5 5 3 3 3 2 2 2 2 2 3 3 3 4 5 6 7 8 6
6 5 6 9 10 9 7 7 8 6 4 3 3 3 3 2 2 2 2 2 3 3 4 3 2 3 3 3 3 3 3 3 3 3 3 5 6 8
5 7 9 9 8 6 6 7 6 4 3 3 3 4 3 2 2 1 1 1 1 1 1 2 2 3 3 3 3 3 2 3 3 3 3 4 4 4
5 6 8 8 6 5 5 4 3 3 3 3 3 3 3 2 2 1 1 1 1 1 1 1 2 3 3 3 3 4 3 3 3 2 2 3 3 4
6 4 4 3 3 3 3 3 3 3 3 3 3 3 3 2 2 1 1 1 2 2 1 0 1 1 2 2 3 4 3 3 3 2 2 3 4 4
6 4 4 3 3 3 3 3 3 3 3 3 3 3 3 2 2 2 2 2 2 2 2 2 1 1 1 1 3 4 3 3 3 2 3 3 5 4
4 3 3 4 3 3 3 4 4 3 3 3 3 3 3 3 2 2 2 2 2 2 2 2 2 3 3 3 2 3 3 3 2 3 3 4 5 5
3 4 4 4 4 4 4 4 4 4 3 3 3 3 3 3 3 3 3 3 3 2 2 3 3 3 4 3 2 2 3 3 3 3 3 4 4 5
4 4 4 4 4 4 4 4 4 4 4 3 3 3 3 3 3 3 3 4 4 3 4 3 2 2 1 1 2 3 2 3 4 4 3 3 4 3
4 4 4 4 4 4 4 4 4 4 4 4 4 3 3 4 4 4 4 4 4 3 3 2 2 2 2 3 4 3 3 2 3 5 7 6 4 4
5 5 4 4 4 4 4 4 5 4 4 4 4 4 4 4 4 4 4 4 3 3 3 2 2 2 3 3 4 3 4 4 3 2 3 5 7 8
Wind_Direction
270 264 260 259 255 256 257 253 255 267 264 261 257 249 254 256 255 250 249 249 242 235 235 235 235 233 233 229 225 216 213 210 208 204 206 213 216 215
274 270 265 262 256 253 252 253 252 257 264 258 264 264 259 258 257 255 251 252 241 233 232 229 228 224 223 225 225 219 215 211 208 206 209 215 219 224
273 271 270 269 264 257 253 251 251 251 259 269 269 266 258 254 254 255 253 244 234 234 232 226 220 217 218 220 220 217 213 211 214 213 212 216 221 232
273 271 270 269 264 263 257 252 250 249 254 265 267 263 260 253 249 249 254 246 234 230 227 223 218 217 217 217 216 215 214 213 217 219 215 217 223 232
273 271 271 269 267 265 262 256 252 250 250 255 259 261 264 256 250 252 254 243 237 226 222 223 220 219 218 216 214 212 214 213 215 218 220 223 223 231
273 271 270 268 268 269 265 261 255 251 248 248 252 249 256 256 244 241 247 240 236 231 227 227 223 220 220 217 216 214 214 214 215 218 221 228 231 231
273 271 269 271 274 275 274 269 258 250 247 245 249 247 244 241 237 236 241 235 245 228 220 222 219 221 220 218 215 210 211 214 215 218 223 227 236 237
276 276 274 270 273 273 276 274 267 255 250 246 248 243 241 241 242 235 233 228 242 223 223 230 222 223 226 219 209 208 210 214 216 219 224 232 236 242
278 279 278 276 277 278 277 274 269 262 261 256 250 250 247 241 237 235 233 240 247 220 221 233 225 230 224 219 213 210 213 218 222 223 225 230 235 242
279 276 276 276 275 281 282 278 275 272 267 259 255 256 260 254 240 241 240 247 269 237 223 231 221 229 233 228 213 214 215 218 221 225 228 233 239 243
283 279 278 277 279 281 281 279 281 284 282 273 271 265 260 261 257 242 227 217 240 240 234 228 211 226 238 237 221 217 216 215 219 227 232 235 240 244
286 282 279 283 286 281 278 279 282 287 290 283 274 270 262 249 243 233 227 224 233 238 223 219 205 196 233 239 232 218 215 215 221 228 234 237 239 243
287 286 285 288 287 284 282 277 281 289 287 284 277 266 261 251 245 245 237 231 229 236 211 209 213 215 215 232 244 234 228 228 223 223 227 233 237 242
288 286 287 291 291 288 286 287 285 286 281 282 278 269 260 258 261 263 264 274 272 247 217 212 221 211 203 226 240 234 239 237 230 230 235 236 241 243
292 293 293 292 291 286 286 287 284 279 274 272 276 279 279 275 274 282 304 311 335 318 251 252 234 209 212 218 227 230 244 249 235 232 237 245 248 241
299 295 292 288 289 292 292 291 289 285 280 275 282 289 291 273 253 247 252 224 234 322 331 290 256 227 228 231 222 226 228 232 228 235 247 259 261 256
308 300 294 298 299 299 299 300 299 296 289 283 279 283 284 280 276 271 254 234 238 229 241 317 359 335 278 236 225 224 222 233 235 230 242 261 264 256
303 293 294 293 294 297 297 297 295 294 292 285 277 277 276 274 278 274 253 235 229 219 213 202 181 187 256 283 254 229 228 239 245 236 239 251 260 261
300 291 291 291 291 291 291 291 291 292 289 282 276 274 278 274 268 259 248 241 234 224 217 211 211 209 219 240 243 230 237 237 242 246 246 254 260 264
306 297 292 292 290 288 286 285 287 288 283 279 277 271 271 271 265 256 248 240 233 228 224 225 229 227 229 239 249 255 228 233 240 247 256 265 272 270
307 304 298 294 291 288 286 285 283 281 281 279 275 269 261 263 262 255 252 244 240 232 224 229 238 242 261 228 236 247 244 238 247 250 252 261 263 256
305 302 299 295 293 290 287 284 281 280 281 274 272 268 260 256 258 252 246 240 239 239 241 236 206 217 229 229 237 250 263 264 259 257 253 247 238 231
303 301 299 296 292 289 285 282 280 278 276 274 270 268 264 260 260 254 249 243 239 232 227 223 225 234 234 227 236 247 255 258 260 261 266 262 255 258